< < Back
Terminal Aerodrome Forecast


Current Version              Previous Versions:   1  2  3  4  5  6  7  8  9  

Terminal Aerodrome Forecast

962
FTUS42 KTAE 212300
TAFABY
TAF
KABY 212320Z 2200/2224 30003KT P6SM SKC
     FM220200 00000KT P6SM SKC
     FM221500 01008KT P6SM SKC=

Latest METAR

800
SAUS70 KWBC 220300 RRB
MTRABY
METAR KABY 220253Z 00000KT 10SM CLR 15/12 A3002 RMK AO2 SLP165 T01500122
51018 $


USA.gov is the U.S. government's official web portal to all federal, state and local government web resources and services.